Location: Perryvale
(54.4667°N, 113.3833°W)
Time: 11:57:34
(UTC+00:00)

Vanguard 3 - Pass Details

Date: 28 May 2024
Orbit: 509 x 3231 km, 33.3° (Epoch: 16 June)

Event Time Altitude Azimuth Distance (km) Brightness Sun altitude
Rises 05:49:44 0° 255° (WSW) 4,943 11.3 -10.9°
Reaches altitude 10° 05:54:12 10° 237° (WSW) 4,429 10.8 -11.2°
Maximum altitude 06:01:33 18° 202° (SSW) 4,486 10.5 -11.6°
Enters shadow 06:09:01 12° 173° (S) 5,437 10.7 -12.0°
